Vorticity
28 31 33 34 35 31 26 20 16 15 15 17 19 20 21 21 21 22 24 26 26 21 16 12 14 14 13 12 14 17 20 21 20 20 20 21 23 25 24 22 15 10 4 -3 3 5 6 5 4 4 5 5 6 6 6 6 7 9 10 11 11 12 12 12 13 14 16 16 14
30 33 34 34 35 33 28 20 13 10 11 15 19 22 23 22 22 24 26 30 28 20 13 11 12 13 13 11 13 16 19 21 21 20 19 20 22 24 24 22 17 12 6 -2 1 4 5 4 4 4 4 5 6 6 6 6 7 8 10 11 12 12 12 12 14 16 16 14 13
32 33 34 35 36 33 26 16 9 7 10 16 21 23 23 22 22 24 27 31 27 18 10 10 12 13 13 11 12 15 19 21 21 20 19 19 22 24 24 23 18 14 8 1 0 2 4 5 4 4 4 4 5 6 6 6 6 7 9 10 12 12 12 13 15 16 16 13 11
33 34 34 35 35 30 21 10 8 10 14 19 22 22 21 20 21 24 28 30 26 18 12 10 13 14 13 11 12 15 18 21 21 20 19 19 21 23 24 23 19 15 11 8 4 3 3 5 4 4 4 4 5 6 5 5 6 6 8 10 11 12 13 14 16 16 15 11 9
35 35 33 32 31 26 20 15 16 18 20 21 21 20 18 18 21 25 28 28 26 19 12 10 13 14 13 11 12 14 18 21 21 20 19 19 21 23 24 23 20 14 9 12 10 6 4 4 4 4 4 4 5 5 5 5 5 6 7 10 11 12 14 16 17 16 14 10 7
37 34 28 24 24 25 26 26 25 24 22 20 18 16 15 18 23 27 30 31 24 14 8 9 13 15 14 11 11 14 18 20 20 20 19 18 20 22 24 23 22 14 7 9 11 10 7 4 4 4 4 4 4 5 5 4 4 5 7 9 11 13 15 18 17 15 12 7 6
36 29 19 11 12 16 20 24 25 24 21 18 14 13 15 20 26 30 32 29 15 8 6 11 16 16 13 10 11 14 17 20 20 19 18 18 20 22 23 23 22 15 8 8 10 10 10 5 4 4 3 4 4 4 4 4 4 4 6 9 12 15 17 18 16 14 11 6 7
32 24 13 4 4 9 15 22 24 23 20 16 14 16 19 25 29 31 28 17 8 6 9 16 18 16 13 10 12 14 18 20 20 19 18 17 19 21 22 23 22 17 10 7 6 10 11 6 4 3 3 3 4 4 4 3 3 4 6 10 14 16 18 18 16 15 12 7 8
25 21 14 7 7 11 17 22 23 22 19 17 18 20 24 28 30 24 14 3 5 9 15 19 18 16 13 11 12 14 17 20 20 19 17 16 18 20 21 22 22 19 14 10 6 8 11 7 4 3 2 3 4 3 3 3 2 4 7 13 16 18 18 18 16 13 11 7 9
18 16 14 11 12 15 18 21 20 19 18 17 18 22 25 28 21 10 2 2 9 14 19 21 19 15 12 11 13 15 17 19 20 19 17 16 17 19 21 22 21 19 17 13 9 10 11 8 4 3 2 3 3 3 3 2 2 5 10 16 18 18 18 18 16 12 8 5 8
13 13 14 13 14 16 17 18 16 15 15 16 19 22 22 15 5 2 4 10 15 19 22 22 18 14 12 11 13 15 17 19 20 18 17 16 16 18 20 22 21 19 18 16 13 13 12 8 5 3 2 3 3 3 2 2 4 8 13 18 18 18 17 16 14 12 8 7 8
13 14 15 14 15 16 16 15 14 14 15 18 21 19 11 -2 0 7 14 18 20 22 22 19 15 12 11 11 13 15 17 19 19 18 17 15 16 18 20 22 20 19 19 19 17 15 13 9 5 4 3 2 2 2 2 3 7 11 16 18 17 16 16 14 13 11 9 10 10
16 17 18 18 17 16 16 15 15 16 18 22 22 15 5 -3 9 17 22 22 22 21 18 14 12 11 11 12 14 16 18 19 19 18 17 16 17 19 20 20 20 20 20 21 19 16 13 9 6 4 3 2 2 3 4 7 10 13 16 16 15 14 12 10 10 8 7 7 9
20 20 21 21 20 19 18 18 18 20 22 24 22 15 9 10 18 22 23 22 20 18 15 12 11 13 15 16 17 18 19 20 20 18 17 16 17 18 19 20 20 22 24 24 20 16 12 8 6 4 4 3 3 5 7 10 12 14 14 12 10 10 9 7 7 6 6 4 6
24 22 21 21 21 21 22 22 22 23 24 24 22 19 18 18 20 20 19 18 16 15 14 13 12 17 22 22 21 20 21 21 20 19 18 17 18 19 20 21 21 23 25 24 21 16 11 7 6 4 4 4 5 8 10 11 12 13 12 7 8 9 9 8 6 5 5 4 6
25 23 20 16 16 18 21 24 24 24 24 24 23 22 21 19 15 10 8 7 9 10 13 15 14 17 22 24 25 25 24 23 22 20 20 20 21 22 23 23 22 22 23 23 21 16 10 7 6 5 5 5 7 10 11 10 11 10 8 5 10 11 11 9 6 5 5 7 8
22 20 16 12 10 12 16 21 22 22 22 22 20 19 17 15 11 7 4 3 2 3 5 8 8 8 11 22 28 31 31 30 28 26 25 26 27 28 26 22 18 17 18 21 20 15 10 7 6 5 6 7 10 11 11 10 10 7 6 6 11 12 11 8 6 6 7 10 12
16 15 12 11 12 13 16 21 21 19 17 15 13 10 9 8 8 9 9 8 2 -1 -0 2 5 3 5 20 28 32 33 35 32 30 28 26 25 24 22 16 13 12 14 21 19 14 10 7 6 6 7 9 11 12 11 8 7 6 7 9 10 9 8 7 8 10 12 14 14
12 12 10 9 10 13 16 20 19 14 10 7 6 5 5 4 5 7 8 7 3 2 3 7 10 7 9 22 24 23 21 21 22 22 21 17 13 12 13 12 12 14 18 22 19 14 9 7 6 7 8 11 13 12 9 6 5 7 10 10 7 6 6 7 10 13 16 16 14
10 10 10 8 6 8 12 17 16 12 6 5 7 9 12 15 15 13 11 7 4 4 7 12 12 11 15 25 19 12 8 8 7 10 12 11 8 9 11 13 15 18 22 23 17 12 8 6 7 9 11 13 12 10 7 5 6 9 10 9 6 5 6 9 14 16 16 14 15
14 15 14 11 10 12 15 19 18 15 13 14 17 21 26 32 31 26 19 12 6 5 7 12 12 16 22 27 12 4 3 10 8 8 10 11 10 12 14 16 19 22 22 20 13 9 7 7 9 11 12 12 10 7 5 7 8 9 9 7 6 6 8 13 17 16 13 12 14
26 26 24 21 19 20 21 22 20 18 17 16 18 22 28 35 35 32 27 19 13 10 11 15 18 24 29 28 9 -0 1 12 12 12 13 15 16 19 21 21 22 21 19 14 9 7 8 9 11 12 10 8 5 4 5 9 9 8 7 6 7 10 14 17 14 11 8 7 10
34 33 32 31 29 26 23 20 16 11 7 3 1 3 7 14 21 25 27 25 21 20 19 20 23 28 31 28 11 3 3 13 15 18 21 24 25 25 24 22 20 16 12 8 7 8 9 11 11 9 6 2 1 3 5 7 6 6 7 8 12 16 18 16 10 6 5 6 10
22 20 18 21 25 26 24 18 11 4 0 -1 3 7 8 6 5 7 12 16 17 18 17 16 16 20 24 26 17 12 12 20 23 26 29 30 28 24 21 18 14 11 8 7 8 10 10 9 6 3 0 0 3 5 5 3 3 4 7 12 18 20 18 11 7 7 9 12 14
12 10 9 10 15 19 20 17 11 5 2 4 13 22 27 28 19 10 4 3 7 10 10 9 8 12 19 26 25 24 23 24 24 26 28 27 23 19 15 12 10 8 8 9 10 10 8 4 -1 -2 -0 4 6 6 5 3 3 6 10 16 19 18 13 7 8 11 15 18 16
13 14 15 17 20 21 21 19 15 9 4 2 6 14 22 29 28 24 17 12 11 10 10 9 13 19 26 29 28 26 22 19 18 19 19 18 15 12 9 8 9 9 10 10 9 5 0 -5 -5 -1 4 7 6 5 4 4 6 8 11 14 15 12 9 6 7 10 14 16 13
16 13 14 18 22 23 22 19 14 10 6 2 4 7 12 17 21 21 18 13 12 13 15 19 24 27 28 25 21 18 15 13 13 13 13 11 9 8 9 10 11 12 10 8 2 -3 -6 -5 0 4 6 5 4 2 2 4 6 6 6 7 10 11 10 7 5 6 8 8 8
26 21 18 18 20 22 23 23 21 20 18 17 17 19 21 23 23 18 12 6 9 15 22 26 26 24 22 18 15 13 11 11 11 10 10 9 10 11 12 13 13 10 4 -2 -6 -6 -2 4 6 6 5 2 0 -0 1 4 4 3 3 4 9 12 11 7 4 6 8 7 8
28 27 25 24 24 26 30 33 36 39 41 44 44 43 40 36 31 25 20 16 18 21 23 22 22 21 20 20 18 16 14 13 14 15 15 15 15 14 13 10 5 -1 -6 -7 -2 3 7 8 6 5 3 1 -0 1 3 5 5 4 4 6 11 11 9 4 4 8 12 12 13
16 17 15 13 13 14 16 18 22 25 28 32 35 37 38 36 32 29 27 26 26 26 25 24 23 22 21 22 21 20 18 17 17 17 17 16 13 9 5 0 -3 -3 -0 4 9 11 10 6 3 2 2 2 4 8 12 12 10 9 9 9 12 11 8 7 9 14 18 20 20
7 6 4 5 4 2 0 -2 -3 -2 2 8 13 18 22 24 22 20 18 17 16 15 15 14 13 13 13 14 14 15 15 14 12 11 10 9 6 4 2 0 3 7 11 12 12 9 5 -0 -2 0 4 8 13 18 21 18 12 10 10 12 14 13 13 13 17 21 25 24 20
11 6 3 -0 -7 -14 -20 -24 -25 -22 -17 -9 -2 4 8 10 8 6 3 1 0 2 4 7 7 8 8 8 8 9 9 9 8 7 7 6 7 7 7 8 11 12 12 8 3 -1 -5 -6 -2 4 10 16 17 19 20 16 10 8 10 13 16 16 16 19 23 25 25 21 16
17 10 2 -5 -13 -19 -20 -16 -8 -1 3 3 1 -0 2 6 11 12 10 6 4 5 7 10 10 9 8 8 8 9 10 10 10 10 9 8 10 10 10 9 8 5 2 -2 -5 -5 -4 -1 4 10 14 16 15 15 14 12 8 8 11 15 18 18 19 22 24 22 18 14 12
14 10 5 0 3 10 21 34 39 42 43 42 29 14 3 3 11 15 16 15 13 12 11 12 12 10 8 6 7 8 10 10 10 9 9 9 9 8 6 2 -2 -4 -6 -5 -2 2 4 7 10 11 13 14 13 13 13 12 11 12 14 18 17 18 19 21 20 17 14 12 11
13 10 7 5 7 12 19 24 22 22 23 27 22 12 4 2 6 10 13 15 16 18 18 18 17 15 13 10 10 10 9 8 6 6 7 7 6 5 1 -4 -7 -7 -3 3 8 11 13 14 15 15 15 16 16 17 17 17 18 19 20 21 19 18 18 18 17 15 14 13 11
16 14 12 10 10 12 14 13 10 7 6 6 6 4 3 3 3 4 5 6 8 11 14 17 18 18 18 17 16 14 12 9 7 7 7 7 7 6 3 -1 -2 2 10 18 21 21 21 22 22 23 23 23 24 24 25 24 25 25 25 24 21 18 17 16 16 16 14 13 12
12 14 15 15 14 13 12 10 8 6 5 4 4 4 4 4 3 3 3 3 4 5 5 6 7 9 10 11 11 11 10 10 9 8 6 5 5 6 6 7 10 14 21 28 29 29 29 30 31 32 33 32 30 29 28 26 25 24 23 22 18 16 16 17 17 17 16 15 16
12 17 21 23 20 18 16 15 14 12 11 10 10 10 10 8 6 5 4 3 4 4 3 2 2 2 2 4 4 4 4 5 4 2 -2 -5 -2 3 10 18 24 28 31 35 35 34 32 32 32 31 30 28 25 23 20 18 18 19 19 17 16 16 17 19 18 18 18 17 15
16 24 31 36 32 29 26 25 22 18 15 14 16 17 18 18 15 12 9 7 6 5 4 3 1 1 1 2 2 2 2 2 3 2 0 0 9 19 29 37 38 37 35 34 31 27 24 22 20 18 16 14 12 12 13 15 17 18 17 16 17 18 18 18 17 15 13 9 5
18 25 32 36 32 26 20 15 12 10 10 10 12 13 13 14 14 14 13 13 12 11 10 8 7 8 11 14 16 16 15 14 16 18 21 25 32 38 42 42 36 31 26 23 18 13 10 9 7 6 6 6 8 10 12 14 15 14 14 14 16 16 15 13 10 6 2 -1 -2
21 23 21 16 8 1 -3 -4 -0 5 10 13 10 7 5 4 7 11 14 18 19 20 22 24 27 30 34 37 38 37 35 33 33 34 36 39 40 39 36 31 25 20 15 12 9 7 6 6 7 7 8 10 11 12 12 12 12 12 13 14 13 11 8 3 0 -2 -2 -3 -2
Height
2932 2931 2930 2930 2929 2929 2929 2929 2931 2932 2932 2933 2933 2933 2933 2934 2934 2935 2937 2938 2939 2941 2943 2945 2946 2947 2949 2951 2953 2955 2956 2958 2959 2961 2963 2964 2966 2969 2972 2974 2977 2980 2983 2987 2990 2993 2996 2999 3001 3003 3005 3008 3010 3012 3014 3016 3018 3019 3021 3022 3023 3024 3025 3026 3028 3029 3030 3032 3033
2929 2928 2927 2926 2926 2926 2927 2928 2929 2930 2930 2930 2931 2931 2931 2932 2933 2934 2935 2937 2938 2939 2942 2944 2945 2946 2948 2950 2952 2954 2955 2956 2958 2959 2961 2963 2965 2968 2970 2973 2976 2979 2982 2985 2989 2992 2995 2998 3000 3003 3004 3007 3009 3011 3013 3015 3017 3018 3019 3021 3022 3023 3024 3026 3027 3028 3029 3031 3032
2927 2926 2925 2924 2924 2924 2925 2926 2928 2929 2929 2929 2929 2929 2930 2930 2931 2933 2934 2935 2936 2938 2941 2944 2944 2945 2947 2949 2951 2953 2954 2955 2957 2958 2960 2962 2964 2966 2969 2972 2975 2978 2980 2984 2987 2991 2994 2997 3000 3002 3004 3006 3008 3010 3013 3014 3016 3017 3019 3020 3021 3022 3024 3025 3026 3028 3029 3030 3031
2926 2924 2924 2924 2923 2924 2925 2926 2927 2927 2928 2927 2928 2928 2929 2929 2930 2932 2933 2934 2935 2937 2940 2943 2944 2944 2946 2948 2950 2952 2953 2954 2956 2957 2959 2961 2963 2965 2968 2971 2974 2976 2979 2983 2986 2989 2993 2996 2999 3001 3004 3006 3008 3010 3012 3014 3015 3017 3018 3019 3020 3022 3023 3024 3025 3027 3028 3029 3031
2925 2924 2924 2923 2924 2924 2925 2925 2926 2926 2926 2927 2927 2928 2928 2929 2930 2931 2932 2933 2934 2937 2939 2942 2943 2944 2945 2948 2949 2951 2952 2954 2955 2957 2958 2960 2962 2964 2967 2969 2972 2975 2979 2983 2986 2989 2992 2996 2999 3001 3003 3005 3007 3009 3011 3013 3014 3016 3017 3018 3019 3021 3022 3024 3025 3026 3027 3029 3030
2925 2924 2924 2924 2924 2924 2925 2925 2925 2926 2926 2926 2927 2928 2928 2929 2930 2930 2931 2932 2934 2937 2940 2942 2942 2943 2945 2947 2949 2950 2952 2953 2954 2956 2958 2959 2962 2964 2966 2969 2971 2974 2979 2983 2986 2989 2992 2995 2998 3000 3002 3004 3006 3009 3010 3012 3013 3015 3016 3017 3019 3020 3021 3023 3024 3025 3027 3028 3029
2926 2925 2925 2925 2925 2925 2925 2925 2925 2925 2926 2926 2927 2928 2929 2929 2929 2930 2931 2933 2934 2937 2940 2941 2942 2943 2944 2946 2948 2949 2951 2952 2954 2955 2957 2959 2961 2963 2965 2968 2970 2974 2977 2982 2985 2988 2991 2994 2997 2999 3001 3004 3006 3008 3009 3011 3013 3014 3015 3016 3018 3019 3020 3022 3023 3024 3026 3027 3028
2927 2926 2926 2926 2925 2925 2925 2925 2925 2926 2926 2927 2928 2928 2929 2929 2929 2930 2931 2933 2935 2938 2939 2940 2941 2943 2944 2946 2947 2949 2950 2952 2953 2955 2956 2959 2960 2963 2965 2967 2970 2973 2976 2980 2984 2987 2990 2994 2996 2999 3001 3003 3005 3007 3009 3010 3012 3013 3014 3016 3017 3018 3020 3021 3022 3024 3025 3026 3027
2928 2927 2927 2926 2926 2926 2926 2926 2926 2926 2927 2927 2928 2928 2929 2929 2930 2931 2932 2934 2936 2938 2939 2940 2942 2943 2944 2946 2947 2949 2950 2951 2953 2954 2956 2958 2960 2962 2964 2967 2969 2972 2975 2979 2983 2986 2990 2993 2996 2998 3000 3002 3004 3006 3008 3009 3011 3013 3014 3015 3016 3018 3019 3021 3022 3023 3024 3025 3026
2929 2928 2927 2927 2927 2927 2927 2927 2927 2927 2927 2928 2928 2928 2929 2930 2931 2932 2934 2935 2936 2938 2939 2941 2942 2943 2944 2946 2947 2948 2949 2951 2952 2954 2956 2958 2960 2962 2964 2966 2969 2971 2975 2979 2982 2985 2989 2992 2995 2997 2999 3002 3004 3005 3007 3009 3011 3012 3013 3014 3016 3017 3019 3020 3021 3022 3024 3024 3025
2929 2929 2928 2928 2928 2927 2928 2928 2928 2928 2928 2928 2929 2929 2930 2931 2932 2934 2935 2936 2937 2938 2939 2941 2942 2943 2944 2946 2947 2948 2949 2951 2952 2954 2955 2958 2959 2962 2964 2966 2969 2972 2975 2979 2982 2985 2988 2991 2994 2997 2999 3001 3003 3005 3007 3009 3010 3012 3013 3014 3015 3017 3018 3019 3020 3022 3023 3024 3024
2931 2930 2929 2929 2929 2929 2929 2929 2929 2928 2929 2929 2929 2930 2931 2932 2933 2934 2935 2936 2937 2939 2940 2941 2942 2943 2944 2945 2946 2948 2949 2950 2952 2954 2955 2958 2960 2962 2964 2967 2969 2972 2975 2978 2982 2985 2988 2991 2994 2996 2999 3001 3003 3005 3007 3008 3010 3011 3012 3014 3015 3016 3017 3018 3019 3021 3022 3023 3024
2933 2932 2932 2931 2930 2930 2930 2929 2929 2929 2929 2930 2930 2931 2932 2933 2934 2935 2936 2937 2938 2939 2940 2941 2942 2943 2944 2945 2946 2948 2949 2950 2952 2954 2955 2958 2960 2962 2964 2967 2969 2972 2975 2978 2982 2985 2988 2990 2993 2995 2998 3000 3003 3005 3006 3008 3009 3010 3012 3013 3014 3016 3017 3018 3019 3021 3022 3023 3024
2935 2934 2934 2933 2933 2932 2931 2931 2930 2930 2930 2931 2931 2932 2933 2934 2935 2936 2937 2938 2939 2939 2940 2941 2943 2944 2944 2945 2946 2947 2949 2950 2952 2954 2956 2958 2960 2962 2964 2967 2970 2973 2976 2979 2982 2984 2987 2990 2993 2995 2998 3000 3003 3004 3006 3007 3009 3009 3011 3012 3014 3015 3017 3019 3019 3021 3022 3023 3023
2937 2936 2935 2934 2934 2933 2933 2932 2932 2932 2932 2932 2932 2933 2934 2935 2936 2937 2938 2939 2939 2940 2941 2942 2944 2944 2945 2945 2947 2948 2949 2950 2952 2954 2956 2958 2960 2963 2965 2967 2970 2974 2977 2979 2982 2984 2987 2990 2993 2995 2998 3000 3002 3004 3005 3007 3008 3009 3010 3012 3014 3015 3017 3019 3019 3020 3021 3022 3022
2939 2938 2937 2936 2935 2935 2934 2934 2933 2933 2933 2933 2934 2934 2935 2936 2938 2939 2939 2940 2941 2941 2943 2944 2945 2945 2945 2946 2948 2949 2950 2951 2952 2954 2956 2959 2961 2964 2966 2968 2971 2975 2978 2981 2983 2985 2987 2990 2993 2996 2998 3000 3002 3004 3005 3006 3008 3009 3011 3013 3014 3015 3017 3018 3019 3020 3020 3021 3022
2941 2939 2939 2938 2938 2938 2937 2936 2935 2935 2935 2935 2936 2937 2937 2938 2939 2940 2941 2942 2943 2944 2945 2946 2946 2947 2947 2948 2949 2949 2950 2952 2954 2955 2957 2960 2962 2964 2967 2969 2973 2976 2980 2982 2983 2985 2988 2991 2994 2996 2998 3000 3002 3003 3004 3006 3007 3009 3011 3013 3014 3016 3017 3018 3018 3019 3019 3020 3021
2943 2942 2941 2940 2940 2940 2939 2938 2938 2938 2938 2938 2938 2939 2939 2939 2940 2941 2942 2944 2945 2946 2947 2948 2949 2949 2949 2949 2950 2951 2952 2953 2955 2957 2959 2961 2963 2966 2968 2971 2975 2979 2981 2982 2984 2986 2989 2991 2994 2996 2998 3000 3001 3003 3004 3006 3008 3010 3012 3013 3014 3015 3016 3017 3018 3018 3019 3020 3021
2944 2944 2943 2942 2941 2941 2940 2940 2940 2940 2940 2940 2940 2940 2941 2941 2942 2943 2943 2944 2946 2948 2949 2950 2951 2951 2951 2951 2952 2953 2954 2955 2957 2958 2961 2964 2967 2969 2972 2974 2978 2980 2981 2982 2984 2987 2990 2992 2994 2996 2998 3000 3001 3003 3004 3006 3009 3011 3012 3012 3014 3015 3016 3016 3017 3018 3019 3019 3020
2946 2945 2944 2944 2943 2943 2942 2942 2942 2941 2941 2941 2942 2942 2943 2944 2944 2944 2944 2946 2947 2949 2949 2950 2951 2952 2952 2954 2955 2956 2957 2958 2960 2961 2964 2967 2971 2973 2974 2976 2977 2979 2980 2983 2986 2988 2991 2993 2995 2997 2998 3000 3002 3003 3005 3007 3009 3011 3011 3012 3013 3014 3015 3016 3016 3017 3018 3019 3020
2948 2947 2946 2945 2945 2944 2944 2944 2944 2944 2943 2944 2944 2945 2945 2945 2945 2945 2946 2947 2948 2949 2949 2950 2951 2953 2954 2955 2956 2957 2960 2963 2964 2965 2967 2969 2971 2973 2974 2975 2976 2979 2981 2984 2987 2989 2991 2993 2995 2997 2999 3000 3002 3004 3006 3008 3009 3010 3011 3011 3012 3014 3014 3015 3016 3017 3018 3019 3020
2950 2949 2948 2947 2947 2946 2946 2946 2945 2945 2945 2945 2945 2945 2946 2946 2946 2947 2948 2949 2949 2950 2951 2952 2953 2954 2955 2956 2957 2959 2962 2965 2966 2967 2968 2969 2970 2972 2973 2975 2978 2980 2983 2985 2988 2989 2992 2994 2995 2998 2999 3001 3003 3005 3007 3008 3009 3010 3011 3011 3012 3013 3014 3015 3016 3017 3018 3019 3019
2952 2951 2950 2949 2949 2949 2948 2948 2947 2947 2947 2947 2947 2947 2947 2947 2948 2949 2949 2950 2951 2952 2953 2953 2954 2955 2957 2957 2958 2960 2963 2964 2965 2966 2967 2968 2970 2973 2975 2977 2980 2982 2984 2986 2989 2990 2992 2994 2996 2999 3000 3002 3004 3006 3007 3008 3009 3009 3010 3011 3012 3013 3014 3015 3016 3017 3018 3018 3019
2954 2953 2953 2952 2952 2951 2951 2951 2950 2950 2949 2949 2949 2949 2949 2949 2949 2950 2951 2952 2953 2953 2954 2954 2955 2957 2958 2959 2960 2961 2963 2964 2965 2966 2968 2970 2972 2975 2977 2979 2981 2983 2985 2988 2989 2992 2994 2996 2998 2999 3001 3003 3005 3006 3007 3008 3009 3009 3010 3011 3012 3013 3014 3014 3015 3016 3017 3018 3018
2957 2956 2955 2955 2954 2954 2954 2953 2953 2953 2952 2952 2952 2952 2952 2952 2952 2952 2953 2953 2954 2954 2955 2957 2959 2961 2961 2961 2961 2962 2963 2964 2967 2969 2970 2972 2974 2976 2979 2980 2982 2984 2987 2989 2991 2993 2995 2997 2999 3001 3002 3004 3005 3006 3007 3008 3009 3009 3010 3011 3012 3013 3014 3014 3015 3016 3016 3017 3017
2959 2959 2958 2957 2957 2956 2956 2955 2955 2955 2954 2955 2955 2955 2955 2955 2955 2956 2956 2955 2956 2956 2958 2960 2962 2962 2962 2962 2962 2964 2965 2967 2969 2971 2973 2974 2976 2978 2980 2982 2984 2986 2989 2990 2993 2994 2997 2999 3000 3002 3003 3004 3005 3006 3007 3008 3009 3009 3010 3011 3012 3013 3014 3014 3015 3015 3016 3016 3017
2961 2960 2959 2959 2958 2958 2957 2957 2956 2956 2956 2957 2957 2957 2957 2958 2958 2958 2958 2959 2959 2960 2961 2962 2962 2962 2963 2964 2965 2966 2968 2969 2971 2973 2975 2976 2978 2980 2982 2984 2986 2988 2990 2992 2994 2996 2998 3000 3001 3002 3004 3004 3005 3006 3007 3008 3009 3009 3010 3012 3013 3014 3014 3014 3015 3015 3016 3016 3017
2964 2962 2961 2960 2959 2959 2959 2959 2959 2959 2959 2959 2959 2958 2957 2958 2958 2959 2960 2961 2962 2963 2962 2963 2964 2964 2965 2967 2968 2969 2971 2972 2974 2975 2977 2979 2981 2983 2984 2986 2988 2990 2992 2994 2996 2998 2999 3000 3002 3003 3004 3005 3006 3006 3007 3008 3009 3010 3011 3012 3013 3014 3014 3015 3015 3015 3015 3016 3017
2967 2966 2964 2963 2963 2962 2962 2962 2962 2961 2961 2961 2960 2960 2960 2960 2960 2961 2962 2963 2964 2964 2965 2966 2967 2968 2969 2970 2971 2972 2974 2975 2976 2978 2980 2981 2983 2984 2986 2988 2990 2992 2994 2996 2997 2999 3000 3001 3002 3003 3004 3005 3006 3007 3008 3009 3009 3010 3011 3013 3014 3014 3015 3015 3016 3016 3015 3016 3018
2971 2969 2968 2967 2966 2966 2965 2965 2965 2964 2964 2964 2964 2963 2963 2964 2964 2964 2965 2966 2967 2968 2969 2970 2970 2971 2972 2973 2974 2975 2976 2978 2979 2980 2982 2984 2985 2987 2989 2990 2993 2994 2996 2997 2998 2999 3000 3002 3003 3004 3005 3006 3007 3008 3009 3009 3010 3011 3013 3014 3014 3015 3015 3016 3016 3015 3016 3017 3019
2974 2973 2972 2971 2970 2969 2969 2968 2968 2968 2968 2968 2968 2969 2969 2969 2969 2970 2970 2971 2972 2972 2973 2973 2974 2974 2975 2976 2977 2979 2979 2981 2982 2983 2985 2986 2988 2989 2991 2993 2994 2995 2997 2998 2999 3000 3001 3003 3004 3005 3006 3007 3007 3008 3009 3010 3012 3013 3014 3014 3015 3015 3016 3016 3016 3016 3017 3018 3020
2977 2976 2975 2974 2974 2973 2972 2972 2972 2972 2972 2973 2973 2973 2974 2974 2974 2974 2975 2975 2976 2976 2977 2977 2978 2978 2979 2979 2980 2981 2982 2983 2984 2986 2987 2988 2990 2991 2993 2994 2995 2996 2998 2999 3000 3002 3003 3004 3005 3006 3006 3007 3008 3009 3010 3011 3012 3014 3014 3015 3015 3016 3016 3017 3017 3018 3019 3020 3021
2980 2979 2978 2977 2977 2976 2976 2976 2975 2976 2976 2976 2977 2977 2977 2978 2978 2978 2978 2979 2979 2979 2980 2980 2981 2981 2982 2983 2983 2984 2985 2986 2987 2988 2989 2990 2992 2993 2994 2995 2997 2998 2999 3001 3002 3003 3004 3005 3006 3007 3007 3008 3009 3010 3011 3012 3013 3014 3015 3015 3015 3016 3017 3018 3018 3019 3020 3021 3022
2983 2982 2981 2980 2979 2979 2979 2979 2979 2978 2978 2979 2979 2980 2980 2980 2981 2981 2981 2982 2982 2982 2983 2983 2984 2984 2984 2985 2986 2987 2988 2989 2989 2990 2991 2993 2994 2995 2996 2997 2998 3000 3001 3002 3003 3004 3005 3006 3007 3008 3008 3009 3010 3011 3012 3013 3014 3014 3015 3015 3016 3017 3018 3019 3020 3021 3022 3023 3024
2985 2984 2984 2983 2982 2982 2982 2981 2981 2981 2981 2981 2981 2982 2982 2982 2982 2983 2983 2984 2984 2985 2985 2986 2986 2987 2987 2988 2988 2989 2990 2991 2992 2993 2994 2995 2996 2997 2998 2999 3000 3001 3002 3003 3004 3005 3006 3007 3007 3008 3009 3009 3010 3011 3012 3013 3014 3014 3015 3016 3017 3018 3019 3020 3021 3022 3023 3024 3025
2988 2987 2986 2986 2985 2985 2985 2984 2984 2984 2984 2984 2984 2984 2984 2984 2984 2984 2985 2985 2986 2986 2987 2987 2988 2989 2989 2990 2991 2992 2992 2993 2994 2995 2996 2997 2998 2999 3000 3001 3002 3003 3003 3004 3004 3005 3006 3007 3007 3008 3009 3009 3010 3011 3012 3013 3014 3014 3015 3016 3017 3019 3020 3021 3022 3023 3024 3025 3026
2990 2990 2989 2989 2989 2988 2988 2988 2988 2988 2987 2987 2987 2987 2987 2987 2987 2987 2987 2988 2988 2988 2989 2989 2989 2990 2991 2992 2993 2994 2995 2996 2997 2997 2998 2999 3000 3001 3002 3002 3003 3003 3004 3004 3004 3005 3006 3007 3008 3009 3010 3010 3011 3012 3013 3014 3015 3016 3017 3018 3019 3020 3021 3022 3023 3024 3025 3026 3027
2992 2992 2992 2992 2991 2991 2991 2991 2991 2991 2991 2990 2990 2990 2990 2990 2989 2990 2990 2990 2990 2991 2991 2991 2992 2992 2993 2994 2994 2995 2996 2997 2998 2999 2999 3000 3001 3002 3002 3003 3003 3004 3004 3004 3005 3006 3008 3009 3010 3011 3012 3013 3014 3014 3015 3016 3017 3018 3019 3020 3021 3022 3023 3024 3025 3026 3027 3028 3028
2995 2995 2994 2994 2994 2994 2994 2994 2994 2994 2994 2993 2993 2993 2992 2992 2992 2992 2992 2993 2993 2993 2993 2993 2993 2994 2994 2995 2995 2996 2997 2998 2999 3000 3000 3001 3002 3002 3003 3003 3003 3004 3005 3006 3007 3008 3009 3011 3012 3014 3015 3015 3016 3017 3017 3018 3019 3020 3021 3021 3022 3023 3024 3025 3026 3027 3028 3029 3029
2998 2998 2997 2997 2997 2996 2996 2996 2996 2996 2996 2996 2995 2995 2995 2995 2994 2994 2994 2994 2994 2994 2994 2994 2994 2994 2994 2995 2996 2996 2997 2998 2999 3000 3001 3001 3002 3003 3003 3004 3004 3005 3007 3008 3009 3011 3012 3014 3015 3016 3017 3018 3018 3019 3019 3020 3021 3021 3022 3023 3024 3025 3026 3027 3028 3029 3029 3030 3030
3001 3000 3000 2999 2999 2999 2999 2999 2999 2999 2998 2998 2997 2997 2997 2996 2996 2996 2995 2995 2995 2994 2994 2994 2994 2994 2994 2995 2996 2997 2998 2999 3000 3001 3002 3002 3003 3004 3005 3005 3006 3007 3009 3010 3012 3014 3015 3016 3017 3018 3018 3019 3019 3020 3021 3022 3023 3023 3024 3025 3026 3026 3027 3028 3029 3030 3030 3031 3031